{"data":{"norad_id":26958,"intl_designator":"2001-049B","name":"PROBA-1","alt_names":[],"object_type":"PAYLOAD","status":"ACTIVE","operator":null,"country":"ESA","launch_date":"2001-10-22","launch_site_code":"SRILR","launch_vehicle":null,"mission":null,"orbit_class":"UNKNOWN","rcs_meters":null,"size_class":null,"mass_kg":null,"dimensions":null,"purposes":["tech_demo"],"wikipedia_slug":null,"has_3d_model":false,"image_url":null,"decayed_at":null,"tle_current":{"epoch":"2026-09-19T23:27:32.612256Z","epoch_age_seconds":56613,"freshness":"FRESH","line1":"1 26958U 01049B   26262.97746079  .00002000  00000+0  13079-3 0  9995","line2":"2 26958  97.9628 274.8562 0054840 160.8363 199.4944 15.07818203357904","mean_motion":15.07818203,"eccentricity":0.005484,"inclination_deg":97.9628,"raan_deg":274.8562,"arg_perigee_deg":160.8363,"mean_anomaly_deg":199.4944,"bstar":0.00013079,"rev_number":35790,"period_min":95.502229455443,"perigee_km":504.91358374782,"apogee_km":580.82317072535,"semimajor_km":6921.0053772366,"source":"CELESTRAK","updated_at":"2026-09-20T09:00:47.441306Z"}}}